Location: Unspecified
(64.9000°N, 0.0000°E)
Time: 11:01:44
(UTC+00:00)

A-11 Canister half - Pass Details

Date: 19 June 2019
Orbit: 1526 x 1683 km, 47.3° (Epoch: 16 August)

Event Time Altitude Azimuth Distance (km) Brightness Sun altitude
Rises 12:05:30 0° 271° (W) 4,682 11.6 48.5°
Reaches altitude 10° 12:12:14 10° 237° (WSW) 3,704 11.5 48.5°
Maximum altitude 12:13:51 11° 227° (SW) 3,663 11.6 48.5°
Drops below altitude 10° 12:15:30 10° 216° (SW) 3,712 11.8 48.5°
Sets 12:22:19 0° 182° (S) 4,722 12.2 48.4°
